Total_Precipitation_Accumulation
1.81 1.76 1.67 1.52 1.49 1.48 1.49 1.57 1.70 1.54 1.19 0.93 0.90 0.91 0.97 1.00 1.13 1.08 0.99 1.16 1.16 1.10 1.11 1.14 1.15 1.13 1.11 1.15 1.28 1.45 1.55 1.58 1.59 1.67 1.75 1.73 1.66 1.69
1.57 1.62 1.58 1.48 1.42 1.41 1.44 1.49 1.57 1.63 1.40 0.96 0.83 0.85 0.94 0.98 1.09 0.98 0.93 1.11 1.10 1.07 1.04 1.01 1.00 0.98 0.97 0.98 1.04 1.15 1.23 1.32 1.40 1.50 1.67 1.83 1.88 1.89
1.42 1.43 1.41 1.41 1.44 1.41 1.41 1.46 1.51 1.56 1.51 1.12 0.92 0.92 1.01 1.04 1.06 0.99 0.92 0.92 0.93 1.07 1.03 0.98 0.94 0.91 0.90 0.91 0.92 0.95 0.99 1.05 1.17 1.33 1.49 1.65 1.75 1.76
1.31 1.31 1.30 1.30 1.33 1.35 1.40 1.43 1.45 1.45 1.46 1.28 1.03 0.94 0.95 0.96 0.96 0.96 0.91 0.86 0.81 0.98 1.00 0.96 0.93 0.88 0.85 0.85 0.87 0.89 0.88 0.91 0.98 1.06 1.18 1.34 1.50 1.60
1.19 1.21 1.20 1.26 1.30 1.29 1.30 1.30 1.29 1.29 1.32 1.28 1.09 0.92 0.87 0.86 0.91 0.91 0.86 0.83 0.77 0.83 0.90 0.95 0.95 0.92 0.90 0.88 0.90 0.89 0.85 0.80 0.81 0.88 0.98 1.11 1.24 1.37
1.06 1.13 1.15 1.17 1.18 1.19 1.24 1.24 1.21 1.21 1.20 1.22 1.14 1.02 0.95 0.92 0.97 0.99 0.97 0.89 0.84 0.78 0.84 0.87 0.95 0.96 0.88 0.82 0.79 0.82 0.84 0.84 0.87 0.93 0.99 1.04 1.12 1.23
0.98 1.01 1.08 1.20 1.24 1.19 1.16 1.16 1.18 1.23 1.25 1.29 1.23 1.08 0.95 0.90 0.91 0.88 0.92 0.93 0.92 0.88 0.86 0.80 0.75 0.72 0.73 0.75 0.76 0.79 0.85 0.90 0.95 0.98 1.02 1.08 1.12 1.18
0.95 0.93 0.94 1.02 1.05 1.08 1.08 1.07 1.13 1.23 1.33 1.36 1.23 1.03 0.84 0.77 0.76 0.82 0.93 1.00 0.96 0.76 0.74 0.77 0.73 0.73 0.69 0.67 0.79 0.81 0.82 0.86 0.89 0.91 0.93 0.99 1.05 1.11
0.95 0.88 0.83 0.82 0.86 0.80 0.87 0.93 0.97 1.08 1.11 1.02 0.94 0.82 0.75 0.73 0.84 0.95 0.93 0.93 0.81 0.69 0.75 0.84 0.79 0.78 0.71 0.72 0.83 0.78 0.79 0.84 0.88 0.91 0.91 0.92 0.95 1.00
0.81 0.73 0.69 0.64 0.64 0.69 0.72 0.80 0.77 0.77 0.80 0.75 0.71 0.69 0.68 0.72 0.84 1.00 1.02 1.03 0.89 0.77 0.75 0.83 0.74 0.72 0.71 0.72 0.81 0.78 0.78 0.83 0.90 0.94 0.95 0.93 0.93 0.96
0.68 0.63 0.61 0.57 0.66 0.75 0.72 0.73 0.64 0.59 0.66 0.74 0.79 0.80 0.84 0.86 0.86 0.99 1.13 1.23 1.12 0.83 0.67 0.71 0.66 0.63 0.67 0.69 0.72 0.76 0.75 0.77 0.81 0.84 0.86 0.87 0.89 0.91
0.57 0.56 0.63 0.61 0.69 0.76 0.69 0.66 0.61 0.54 0.55 0.61 0.67 0.72 0.71 0.77 0.86 0.85 1.01 1.28 1.18 0.93 0.60 0.66 0.70 0.77 0.96 0.70 0.61 0.62 0.64 0.71 0.76 0.80 0.84 0.89 0.93 0.92
0.54 0.52 0.54 0.68 0.73 0.76 0.68 0.59 0.64 0.67 0.63 0.64 0.66 0.65 0.66 0.69 0.73 0.73 0.81 1.15 1.38 1.08 0.61 0.87 1.08 0.89 1.08 0.86 0.62 0.57 0.57 0.61 0.68 0.76 0.82 0.89 1.00 1.12
0.54 0.51 0.54 0.70 0.72 0.70 0.67 0.66 0.72 0.71 0.62 0.67 0.70 0.69 0.64 0.61 0.61 0.64 0.68 0.75 0.90 0.98 0.76 1.03 1.44 1.15 1.28 1.10 0.74 0.62 0.58 0.59 0.69 0.81 0.87 0.99 1.05 1.14
0.57 0.60 0.63 0.66 0.65 0.62 0.65 0.70 0.68 0.61 0.62 0.67 0.67 0.64 0.62 0.62 0.64 0.70 0.73 0.74 0.75 0.72 0.72 0.80 1.08 1.16 1.39 1.37 0.95 0.67 0.67 0.65 0.66 0.81 0.92 0.99 1.02 1.08
0.63 0.62 0.59 0.57 0.58 0.60 0.61 0.62 0.61 0.63 0.68 0.71 0.69 0.66 0.67 0.71 0.75 0.76 0.79 0.79 0.84 0.77 0.70 0.68 0.78 1.08 1.29 1.05 1.04 0.90 0.75 0.84 0.78 0.87 0.97 1.00 1.04 1.09
0.70 0.64 0.59 0.56 0.55 0.55 0.56 0.57 0.59 0.64 0.70 0.70 0.75 0.78 0.77 0.76 0.75 0.74 0.82 0.88 0.92 0.76 0.69 0.67 0.71 0.82 0.94 0.99 1.05 0.87 0.77 0.83 0.92 1.05 1.20 1.24 1.14 1.17
0.80 0.68 0.59 0.55 0.54 0.54 0.56 0.59 0.61 0.64 0.69 0.76 0.81 0.85 0.88 0.87 0.83 0.76 0.79 0.89 0.90 0.76 0.70 0.68 0.77 0.94 0.92 0.83 0.81 0.89 0.90 0.96 1.02 1.09 1.28 1.48 1.31 1.15
0.77 0.61 0.52 0.50 0.50 0.53 0.58 0.63 0.64 0.63 0.71 0.83 0.90 0.94 0.98 0.95 0.90 0.86 0.81 0.84 0.82 0.74 0.71 0.74 0.91 1.26 1.30 0.85 0.60 0.75 1.08 1.17 1.12 1.15 1.25 1.45 1.61 1.37
0.63 0.57 0.54 0.54 0.57 0.61 0.64 0.67 0.70 0.72 0.78 0.83 0.88 0.95 1.04 1.08 1.00 0.90 0.85 0.87 0.89 0.82 0.74 0.69 0.80 1.19 1.64 1.39 1.04 0.79 0.89 1.24 1.48 1.53 1.31 1.17 1.24 1.23
0.54 0.55 0.57 0.62 0.67 0.70 0.71 0.73 0.77 0.81 0.80 0.85 0.88 0.93 1.02 1.14 1.05 0.90 0.89 0.89 0.96 0.95 0.85 0.67 0.64 0.86 1.25 1.47 1.25 0.83 0.84 0.95 1.28 1.72 1.68 1.48 1.26 1.13
0.55 0.61 0.64 0.69 0.76 0.81 0.83 0.83 0.84 0.81 0.82 0.87 0.88 0.90 0.96 1.08 1.09 0.99 0.98 1.00 0.94 0.90 0.86 0.73 0.71 0.82 1.06 1.31 1.10 0.78 0.76 0.76 0.78 0.88 1.24 1.77 2.33 2.42
0.63 0.67 0.70 0.75 0.81 0.85 0.88 0.88 0.86 0.80 0.80 0.89 0.93 0.93 0.97 1.02 0.99 1.03 1.04 1.05 1.06 0.97 0.91 0.85 0.76 0.76 0.82 0.90 0.97 0.85 0.76 0.71 0.68 0.73 0.94 1.09 1.33 1.63